Regional Weather Roundup
Issued by NWS Raleigh/Durham, NC

Home | Current Version | Previous Version | Text Only | Print | Product List | Glossary On
Versions: 1 2 3 4 5 6 7 8 9 10 11 12 13 14 15 16 17 18 19 20 21 22 23 24 25 26 27 28
000
ASUS42 KRAH 271910
RWRRAH
NORTH CAROLINA WEATHER ROUNDUP
NATIONAL WEATHER SERVICE RALEIGH NC
300 PM EDT FRI MAY 27 2022

NOTE: "FAIR" INDICATES FEW OR NO CLOUDS BELOW 12,000 FEET WITH NO
SIGNIFICANT WEATHER AND/OR OBSTRUCTIONS TO VISIBILITY.

NCZ001-053-055-056-065-067-272000-
WESTERN NORTH CAROLINA

CITY           SKY/WX    TMP DP  RH WIND       PRES   REMARKS
ASHEVILLE      CLOUDY    70  58  65 SW9       29.89S
JEFFERSON      CLOUDY    64  52  64 S5        29.88F
MORGANTON      MOSUNNY   80  59  49 S15G25    29.86F
HICKORY        MOSUNNY   78  59  51 S16G23    29.83F
WILKESBORO     PTSUNNY   75  61  60 S16G26    29.87F
RUTHERFORDTON  PTSUNNY   77  59  53 SW9G18    29.85F
MOUNT AIRY     CLOUDY    75  62  64 SW9       29.83F
BOONE          HVY RAIN  63  57  79 S5        29.91F
$$

NCZ021-022-025-041-071-084-088-272000-
CENTRAL NORTH CAROLINA

CITY           SKY/WX    TMP DP  RH WIND       PRES   REMARKS
CHARLOTTE      NOT AVBL
GREENSBORO     PTSUNNY   78  63  59 SW15      29.82F
WINSTON-SALEM  MOSUNNY   81  56  42 S10G22    29.82F
RALEIGH-DURHAM PTSUNNY   77  69  76 S15G24    29.86F
FORT BRAGG     PTSUNNY   79  68  69 S13G22    29.85F
FAYETTEVILLE   PTSUNNY   79  68  69 S16G28    29.87F
BURLINGTON     MOSUNNY   78  69  73 S8        29.83F
ROXBORO        PTSUNNY   73  68  83 S8        29.86F
HENDERSON      PTSUNNY   73  69  88 S9        29.85F
LOUISBURG      CLOUDY    75  68  78 S10       29.89F
LAURINBURG     CLOUDY    78  69  73 S9        29.88F
$$

NCZ011-015-027-028-043-044-047-080-103-272000-
NORTHEASTERN NORTH CAROLINA

CITY           SKY/WX    TMP DP  RH WIND       PRES   REMARKS
ROCKY MT-WILSO CLOUDY    79  67  66 S14G22    29.87F
GREENVILLE     CLOUDY    77  73  88 SW10G20   29.88F
WASHINGTON     CLOUDY    76  70  82 S7        29.90F
ELIZABETH CITY CLOUDY    74  69  85 S8        29.92F
MANTEO         CLOUDY    80  68  67 SW18G26   29.94F
CAPE HATTERAS  CLOUDY    78  69  73 S13G22    29.97F
$$

NCZ078-087-090-091-093-098-101-272000-
SOUTHEASTERN NORTH CAROLINA

CITY           SKY/WX    TMP DP  RH WIND       PRES   REMARKS
LUMBERTON      PTSUNNY   79  70  74 S12G24    29.88F
GOLDSBORO      PTSUNNY   77  65  66 S15G24    29.87F
KINSTON        MOSUNNY   75  68  78 S16       29.91F
KENANSVILLE    CLOUDY    73  68  83 MISG      29.92R
NEW BERN       LGT RAIN  75  67  76 S6        29.92F
CHERRY POINT   CLOUDY    76  65  68 SW14G36   29.93F
BEAUFORT       PTSUNNY   79  69  71 SW16      29.94F
JACKSONVILLE   CLOUDY    73  67  81 SW14G22   29.92F
WILMINGTON     CLOUDY    73  69  87 SW9       29.93F
$$




USA.gov is the U.S. government's official web portal to all federal, state and local government web resources and services.